| time (UTC) | temp F | wind direction | speed knots | gust knots | rain 1hr in | rain 24hr in | rain mn in | humidity % | barometer mb |
| 20260507072511 | 42 | 155 | 0.0 | 0.0 | 0.00 | 0.00 | 0.00 | 52 | 1014.1 |
| 20260507072010 | 42 | 155 | 0.0 | 0.0 | 0.00 | 0.00 | 0.00 | 51 | 1014.3 |
| 20260507071510 | 42 | 155 | 0.0 | 0.0 | 0.00 | 0.00 | 0.00 | 52 | 1014.3 |
| 20260507071011 | 42 | 155 | 0.0 | 0.0 | 0.00 | 0.00 | 0.00 | 53 | 1014.4 |
| 20260507070512 | 42 | 155 | 0.0 | 0.0 | 0.00 | 0.00 | 0.00 | 52 | 1014.4 |
| 20260507070013 | 42 | 155 | 0.0 | 0.0 | 0.00 | 0.00 | 0.00 | 53 | 1014.5 |
| 20260507065010 | 42 | 155 | 0.0 | 0.0 | 0.00 | 0.00 | 0.00 | 52 | 1014.6 |
| 20260507064510 | 42 | 155 | 0.0 | 0.0 | 0.00 | 0.00 | 0.00 | 52 | 1014.5 |
| 20260507063510 | 42 | 85 | 0.0 | 0.0 | 0.00 | 0.00 | 0.00 | 54 | 1014.7 |
| 20260507063012 | 42 | 85 | 0.0 | 0.0 | 0.00 | 0.00 | 0.00 | 54 | 1014.7 |
| 20260507062010 | 42 | 189 | 0.0 | 0.0 | 0.00 | 0.00 | 0.00 | 54 | 1014.8 |
| 20260507061510 | 42 | 189 | 0.0 | 0.0 | 0.00 | 0.00 | 0.00 | 55 | 1014.8 |
| 20260507061010 | 42 | 187 | 0.0 | 0.0 | 0.00 | 0.00 | 0.00 | 55 | 1014.9 |
| 20260507060510 | 42 | 161 | 0.0 | 0.0 | 0.00 | 0.00 | 0.00 | 54 | 1014.9 |
| 20260507060011 | 42 | 160 | 0.0 | 0.0 | 0.00 | 0.00 | 0.00 | 52 | 1015.0 |
| 20260507055510 | 42 | 165 | 0.0 | 0.0 | 0.00 | 0.00 | 0.00 | 53 | 1015.0 |
| 20260507055011 | 42 | 160 | 0.0 | 0.0 | 0.00 | 0.00 | 0.00 | 54 | 1014.9 |
| 20260507054511 | 42 | 63 | 0.0 | 0.0 | 0.00 | 0.00 | 0.00 | 54 | 1015.0 |
| 20260507054010 | 42 | 58 | 0.0 | 0.0 | 0.00 | 0.00 | 0.00 | 53 | 1014.9 |
| 20260507053011 | 43 | 58 | 0.0 | 0.0 | 0.00 | 0.00 | 0.00 | 52 | 1015.0 |
| 20260507052510 | 42 | 58 | 0.0 | 0.0 | 0.00 | 0.00 | 0.00 | 51 | 1014.9 |
| 20260507052010 | 42 | 58 | 0.0 | 0.0 | 0.00 | 0.00 | 0.00 | 50 | 1015.0 |
| 20260507051510 | 42 | 58 | 0.0 | 0.0 | 0.00 | 0.00 | 0.00 | 52 | 1015.0 |
| 20260507051012 | 42 | 58 | 0.0 | 0.0 | 0.00 | 0.00 | 0.00 | 52 | 1014.9 |
| 20260507050510 | 42 | 58 | 0.0 | 0.0 | 0.00 | 0.00 | 0.00 | 52 | 1015.0 |
| 20260507050011 | 42 | 58 | 0.0 | 0.0 | 0.00 | 0.00 | 0.00 | 52 | 1015.0 |
| 20260507045510 | 42 | 73 | 0.0 | 0.0 | 0.00 | 0.00 | 0.00 | 52 | 1015.0 |
| 20260507045011 | 42 | 72 | 0.0 | 0.0 | 0.00 | 0.00 | 0.00 | 51 | 1014.9 |
| 20260507044510 | 41 | 51 | 0.0 | 0.0 | 0.00 | 0.00 | 0.00 | 51 | 1015.0 |
| 20260507044011 | 41 | 218 | 0.0 | 0.0 | 0.00 | 0.00 | 0.00 | 47 | 1015.0 |
| 20260507043511 | 41 | 212 | 0.0 | 0.0 | 0.00 | 0.00 | 0.00 | 48 | 1015.0 |
| 20260507042511 | 41 | 133 | 0.0 | 0.0 | 0.00 | 0.00 | 0.00 | 48 | 1015.1 |
| 20260507042011 | 41 | 131 | 0.0 | 0.0 | 0.00 | 0.00 | 0.00 | 47 | 1015.1 |
| 20260507041510 | 41 | 146 | 0.0 | 0.0 | 0.00 | 0.00 | 0.00 | 47 | 1015.2 |
| 20260507041012 | 41 | 149 | 0.0 | 0.0 | 0.00 | 0.00 | 0.00 | 47 | 1015.2 |
| 20260507040511 | 41 | 148 | 0.0 | 0.0 | 0.00 | 0.00 | 0.00 | 47 | 1015.2 |
| 20260507035511 | 42 | 207 | 0.0 | 0.0 | 0.00 | 0.00 | 0.00 | 46 | 1015.3 |
| 20260507035011 | 42 | 210 | 0.0 | 0.0 | 0.00 | 0.00 | 0.00 | 46 | 1015.4 |
| 20260507034511 | 42 | 140 | 0.0 | 0.0 | 0.00 | 0.00 | 0.00 | 46 | 1015.4 |
| 20260507034010 | 42 | 139 | 0.0 | 0.0 | 0.00 | 0.00 | 0.00 | 45 | 1015.4 |
| 20260507033011 | 43 | 134 | 0.0 | 0.0 | 0.00 | 0.00 | 0.00 | 44 | 1015.4 |
| 20260507032511 | 43 | 143 | 0.0 | 0.0 | 0.00 | 0.00 | 0.00 | 45 | 1015.5 |
| 20260507032011 | 43 | 144 | 0.0 | 0.0 | 0.00 | 0.00 | 0.00 | 44 | 1015.5 |
| 20260507031512 | 43 | 145 | 0.0 | 0.0 | 0.00 | 0.00 | 0.00 | 45 | 1015.5 |
| 20260507031011 | 43 | 158 | 0.0 | 0.0 | 0.00 | 0.00 | 0.00 | 44 | 1015.5 |
| 20260507030511 | 44 | 163 | 0.0 | 0.0 | 0.00 | 0.00 | 0.00 | 43 | 1015.5 |
| 20260507030011 | 44 | 203 | 0.0 | 0.0 | 0.00 | 0.00 | 0.00 | 44 | 1015.6 |
| 20260507025511 | 45 | 164 | 0.0 | 0.0 | 0.00 | 0.00 | 0.00 | 43 | 1015.6 |
| 20260507025011 | 45 | 164 | 0.0 | 0.0 | 0.00 | 0.00 | 0.00 | 43 | 1015.6 |
| 20260507024511 | 45 | 163 | 0.0 | 0.0 | 0.00 | 0.00 | 0.00 | 43 | 1015.6 |
| 20260507024011 | 46 | 165 | 0.0 | 0.0 | 0.00 | 0.00 | 0.00 | 42 | 1015.6 |
| 20260507023511 | 46 | 267 | 0.0 | 0.0 | 0.00 | 0.00 | 0.00 | 44 | 1015.6 |
| 20260507023012 | 47 | 267 | 0.0 | 0.0 | 0.00 | 0.00 | 0.00 | 43 | 1015.6 |
| 20260507022511 | 47 | 267 | 0.0 | 0.0 | 0.00 | 0.00 | 0.00 | 40 | 1015.7 |
| 20260507022011 | 47 | 267 | 0.0 | 0.0 | 0.00 | 0.00 | 0.00 | 41 | 1015.7 |
| 20260507021011 | 47 | 288 | 0.0 | 0.0 | 0.00 | 0.00 | 0.00 | 40 | 1015.6 |
| 20260507015511 | 48 | 288 | 0.0 | 0.0 | 0.00 | 0.00 | 0.00 | 40 | 1015.6 |
| 20260507014511 | 49 | 263 | 0.0 | 0.0 | 0.00 | 0.00 | 0.00 | 39 | 1015.6 |
| 20260507014011 | 50 | 306 | 0.0 | 0.0 | 0.00 | 0.00 | 0.00 | 38 | 1015.5 |
| 20260507013011 | 50 | 333 | 0.0 | 0.0 | 0.00 | 0.00 | 0.00 | 38 | 1015.5 |
| 20260507012511 | 51 | 291 | 0.0 | 0.0 | 0.00 | 0.00 | 0.00 | 37 | 1015.5 |
| 20260507012011 | 51 | 298 | 0.0 | 0.0 | 0.00 | 0.00 | 0.00 | 37 | 1015.6 |
| 20260507011011 | 51 | 277 | 0.0 | 0.0 | 0.00 | 0.00 | 0.00 | 37 | 1015.5 |
| 20260507010511 | 51 | 283 | 0.0 | 0.0 | 0.00 | 0.00 | 0.00 | 36 | 1015.5 |
| 20260507005510 | 53 | 278 | 0.0 | 0.0 | 0.00 | 0.00 | 0.00 | 35 | 1015.5 |
| 20260507004510 | 54 | 255 | 0.0 | 0.0 | 0.00 | 0.00 | 0.00 | 34 | 1015.5 |
| 20260507003510 | 54 | 300 | 0.9 | 0.9 | 0.00 | 0.00 | 0.00 | 33 | 1015.6 |
| 20260507003010 | 54 | 50 | 1.7 | 0.9 | 0.00 | 0.00 | 0.00 | 33 | 1015.5 |
| 20260507002510 | 55 | 290 | 0.0 | 0.9 | 0.00 | 0.00 | 0.00 | 33 | 1015.5 |
| 20260507002010 | 55 | 309 | 0.0 | 0.9 | 0.00 | 0.00 | 0.00 | 32 | 1015.6 |
| 20260507001510 | 55 | 46 | 0.0 | 0.9 | 0.00 | 0.00 | 0.00 | 33 | 1015.7 |
| 20260507000510 | 55 | 277 | 0.0 | 0.9 | 0.00 | 0.00 | 0.00 | 32 | 1015.7 |
| 20260507000010 | 55 | 303 | 0.0 | 0.9 | 0.00 | 0.00 | 0.00 | 32 | 1015.8 |
| 20260506235510 | 55 | 58 | 0.0 | 1.7 | 0.00 | 0.00 | 0.00 | 32 | 1015.8 |
| 20260506235010 | 56 | 293 | 0.0 | 1.7 | 0.00 | 0.00 | 0.00 | 32 | 1015.9 |
| 20260506234510 | 56 | 328 | 1.7 | 0.9 | 0.00 | 0.00 | 0.00 | 33 | 1015.9 |
| 20260506233510 | 56 | 351 | 0.0 | 0.9 | 0.00 | 0.00 | 0.00 | 32 | 1016.0 |
| 20260506232510 | 54 | 245 | 1.7 | 0.9 | 0.00 | 0.00 | 0.00 | 33 | 1016.1 |
| 20260506232010 | 54 | 281 | 0.0 | 0.9 | 0.00 | 0.00 | 0.00 | 33 | 1016.1 |
| 20260506231510 | 55 | 289 | 0.0 | 0.9 | 0.00 | 0.00 | 0.00 | 32 | 1016.1 |
| 20260506230510 | 56 | 304 | 0.0 | 0.9 | 0.00 | 0.00 | 0.00 | 32 | 1016.2 |
| 20260506230010 | 55 | 295 | 4.3 | 0.9 | 0.00 | 0.00 | 0.00 | 32 | 1016.2 |
| 20260506225510 | 54 | 310 | 0.0 | 0.9 | 0.00 | 0.00 | 0.00 | 33 | 1016.2 |
| 20260506224510 | 55 | 330 | 2.6 | 0.9 | 0.00 | 0.00 | 0.00 | 34 | 1016.3 |
| 20260506224010 | 54 | 30 | 0.9 | 0.9 | 0.00 | 0.00 | 0.00 | 32 | 1016.2 |
| 20260506223510 | 54 | 318 | 0.9 | 0.9 | 0.00 | 0.00 | 0.00 | 33 | 1016.2 |
| 20260506223010 | 54 | 312 | 0.0 | 0.9 | 0.00 | 0.00 | 0.00 | 34 | 1016.3 |
| 20260506222510 | 54 | 53 | 0.0 | 0.9 | 0.00 | 0.00 | 0.00 | 33 | 1016.3 |
| 20260506222010 | 54 | 286 | 0.9 | 1.7 | 0.00 | 0.00 | 0.00 | 33 | 1016.3 |
| 20260506220510 | 55 | 287 | 2.6 | 0.9 | 0.00 | 0.00 | 0.00 | 32 | 1016.5 |
| 20260506220010 | 55 | 52 | 0.0 | 0.9 | 0.00 | 0.00 | 0.00 | 33 | 1016.5 |
| 20260506215510 | 54 | 41 | 0.0 | 0.9 | 0.00 | 0.00 | 0.00 | 33 | 1016.5 |
| 20260506215010 | 54 | 314 | 0.0 | 0.9 | 0.00 | 0.00 | 0.00 | 32 | 1016.5 |
| 20260506214510 | 54 | 316 | 0.9 | 0.9 | 0.00 | 0.00 | 0.00 | 32 | 1016.5 |
| 20260506214010 | 54 | 303 | 4.3 | 0.9 | 0.00 | 0.00 | 0.00 | 32 | 1016.6 |
| 20260506213011 | 54 | 18 | 1.7 | 0.9 | 0.00 | 0.00 | 0.00 | 32 | 1016.6 |
| 20260506212010 | 54 | 317 | 2.6 | 0.9 | 0.00 | 0.00 | 0.00 | 34 | 1016.7 |
| 20260506211511 | 54 | 273 | 6.1 | 1.7 | 0.00 | 0.00 | 0.00 | 33 | 1016.8 |
| 20260506211010 | 56 | 285 | 9.6 | 1.7 | 0.00 | 0.00 | 0.00 | 33 | 1016.9 |
| 20260506210510 | 56 | 284 | 6.1 | 1.7 | 0.00 | 0.00 | 0.00 | 32 | 1016.9 |
| 20260506210010 | 55 | 23 | 1.7 | 0.9 | 0.00 | 0.00 | 0.00 | 35 | 1016.9 |
| 20260506205510 | 54 | 323 | 2.6 | 0.9 | 0.00 | 0.00 | 0.00 | 34 | 1016.9 |
| 20260506205010 | 54 | 271 | 5.2 | 0.9 | 0.00 | 0.00 | 0.00 | 34 | 1017.1 |
| 20260506204510 | 54 | 280 | 1.7 | 0.9 | 0.00 | 0.00 | 0.00 | 34 | 1017.2 |
| 20260506204010 | 54 | 283 | 6.1 | 1.7 | 0.00 | 0.00 | 0.00 | 33 | 1017.4 |
| 20260506203511 | 55 | 23 | 3.5 | 1.7 | 0.00 | 0.00 | 0.00 | 33 | 1017.5 |
| 20260506203011 | 54 | 314 | 0.0 | 0.9 | 0.00 | 0.00 | 0.00 | 33 | 1017.4 |
| 20260506202510 | 54 | 281 | 3.5 | 0.9 | 0.00 | 0.00 | 0.00 | 33 | 1017.4 |
| 20260506202010 | 55 | 278 | 0.0 | 0.9 | 0.00 | 0.00 | 0.00 | 32 | 1017.6 |
| 20260506201511 | 54 | 336 | 1.7 | 0.9 | 0.00 | 0.00 | 0.00 | 34 | 1017.5 |
| 20260506201010 | 54 | 6 | 1.7 | 1.7 | 0.00 | 0.00 | 0.00 | 33 | 1017.5 |
| 20260506200011 | 54 | 9 | 0.0 | 0.9 | 0.00 | 0.00 | 0.00 | 34 | 1017.7 |
| 20260506195512 | 53 | 236 | 0.0 | 0.9 | 0.00 | 0.00 | 0.00 | 36 | 1017.6 |
| 20260506195011 | 53 | 314 | 1.7 | 0.9 | 0.00 | 0.00 | 0.00 | 34 | 1017.7 |
| 20260506194510 | 53 | 323 | 3.5 | 0.9 | 0.00 | 0.00 | 0.00 | 34 | 1017.8 |
| 20260506194010 | 54 | 300 | 1.7 | 0.9 | 0.00 | 0.00 | 0.00 | 33 | 1017.8 |
| 20260506193511 | 54 | 33 | 1.7 | 0.9 | 0.00 | 0.00 | 0.00 | 35 | 1017.7 |
| 20260506192510 | 54 | 307 | 6.1 | 0.9 | 0.00 | 0.00 | 0.00 | 34 | 1017.8 |
| 20260506192010 | 53 | 315 | 3.5 | 0.9 | 0.00 | 0.00 | 0.00 | 35 | 1017.8 |
| 20260506191011 | 52 | 333 | 3.5 | 0.9 | 0.00 | 0.00 | 0.00 | 35 | 1018.0 |
| 20260506190511 | 51 | 293 | 0.0 | 1.7 | 0.00 | 0.00 | 0.00 | 36 | 1018.1 |
| 20260506185510 | 51 | 329 | 8.7 | 0.9 | 0.00 | 0.00 | 0.00 | 36 | 1018.2 |
| 20260506185011 | 51 | 321 | 2.6 | 0.9 | 0.00 | 0.00 | 0.00 | 35 | 1018.1 |
| 20260506184510 | 51 | 345 | 2.6 | 0.9 | 0.00 | 0.00 | 0.00 | 36 | 1018.1 |
| 20260506184010 | 51 | 310 | 0.9 | 1.7 | 0.00 | 0.00 | 0.00 | 35 | 1018.2 |
| 20260506183511 | 52 | 288 | 9.6 | 1.7 | 0.00 | 0.00 | 0.00 | 36 | 1018.2 |
| 20260506183011 | 51 | 242 | 3.5 | 0.9 | 0.00 | 0.00 | 0.00 | 36 | 1018.3 |
| 20260506182511 | 51 | 338 | 0.9 | 1.7 | 0.00 | 0.00 | 0.00 | 36 | 1018.3 |
| 20260506182012 | 52 | 280 | 7.8 | 0.9 | 0.00 | 0.00 | 0.00 | 38 | 1018.3 |
| 20260506181510 | 51 | 266 | 3.5 | 0.9 | 0.00 | 0.00 | 0.00 | 36 | 1018.4 |
| 20260506180511 | 51 | 300 | 0.9 | 0.9 | 0.00 | 0.00 | 0.00 | 37 | 1018.4 |
| 20260506180011 | 51 | 291 | 3.5 | 0.9 | 0.00 | 0.00 | 0.00 | 37 | 1018.5 |
| 20260506175511 | 51 | 217 | 3.5 | 1.7 | 0.00 | 0.00 | 0.00 | 36 | 1018.5 |
| 20260506175011 | 51 | 334 | 9.6 | 1.7 | 0.00 | 0.00 | 0.00 | 37 | 1018.5 |
| 20260506174511 | 50 | 283 | 0.0 | 0.9 | 0.00 | 0.00 | 0.00 | 37 | 1018.5 |
| 20260506174011 | 50 | 162 | 1.7 | 0.9 | 0.00 | 0.00 | 0.00 | 38 | 1018.6 |
| 20260506173511 | 49 | 326 | 1.7 | 0.9 | 0.00 | 0.00 | 0.00 | 40 | 1018.6 |
| 20260506172511 | 49 | 354 | 2.6 | 0.9 | 0.00 | 0.00 | 0.00 | 40 | 1018.7 |
| 20260506171511 | 48 | 35 | 1.7 | 0.9 | 0.00 | 0.00 | 0.00 | 41 | 1018.7 |
| 20260506171011 | 48 | 341 | 1.7 | 0.9 | 0.00 | 0.00 | 0.00 | 41 | 1018.9 |
| 20260506170511 | 48 | 286 | 1.7 | 0.9 | 0.00 | 0.00 | 0.00 | 42 | 1018.9 |
| 20260506170012 | 48 | 359 | 3.5 | 0.9 | 0.00 | 0.00 | 0.00 | 42 | 1018.8 |
| 20260506165511 | 49 | 278 | 2.6 | 0.9 | 0.00 | 0.00 | 0.00 | 41 | 1018.7 |
| 20260506165011 | 48 | 217 | 5.2 | 0.9 | 0.00 | 0.00 | 0.00 | 41 | 1018.6 |
| 20260506164511 | 48 | 211 | 0.0 | 0.9 | 0.00 | 0.00 | 0.00 | 42 | 1018.6 |
| 20260506164011 | 49 | 322 | 4.3 | 0.9 | 0.00 | 0.00 | 0.00 | 41 | 1018.7 |
| 20260506163511 | 49 | 316 | 2.6 | 0.9 | 0.00 | 0.00 | 0.00 | 42 | 1018.6 |
| 20260506163011 | 49 | 47 | 0.0 | 0.9 | 0.00 | 0.00 | 0.00 | 40 | 1018.6 |
| 20260506162511 | 50 | 258 | 5.2 | 0.9 | 0.00 | 0.00 | 0.00 | 41 | 1018.6 |
| 20260506162011 | 49 | 51 | 1.7 | 0.9 | 0.00 | 0.00 | 0.00 | 41 | 1018.5 |
| 20260506161511 | 49 | 40 | 0.0 | 0.9 | 0.00 | 0.00 | 0.00 | 41 | 1018.6 |
| 20260506161011 | 49 | 30 | 0.9 | 0.9 | 0.00 | 0.00 | 0.00 | 41 | 1018.5 |
| 20260506160511 | 48 | 294 | 2.6 | 0.9 | 0.00 | 0.00 | 0.00 | 41 | 1018.5 |
| 20260506160012 | 48 | 308 | 1.7 | 0.9 | 0.00 | 0.00 | 0.00 | 42 | 1018.5 |
| 20260506155511 | 48 | 312 | 2.6 | 0.9 | 0.00 | 0.00 | 0.00 | 42 | 1018.5 |
| 20260506155011 | 48 | 300 | 6.1 | 0.9 | 0.00 | 0.00 | 0.00 | 43 | 1018.5 |
| 20260506154511 | 49 | 354 | 1.7 | 0.9 | 0.00 | 0.00 | 0.00 | 41 | 1018.6 |
| 20260506154011 | 49 | 44 | 3.5 | 0.9 | 0.00 | 0.00 | 0.00 | 40 | 1018.5 |
| 20260506153511 | 49 | 329 | 3.5 | 1.7 | 0.00 | 0.00 | 0.00 | 41 | 1018.5 |
| 20260506153011 | 48 | 250 | 3.5 | 0.9 | 0.00 | 0.00 | 0.00 | 45 | 1018.5 |
| 20260506152511 | 48 | 298 | 2.6 | 0.9 | 0.00 | 0.00 | 0.00 | 45 | 1018.6 |
| 20260506152011 | 48 | 297 | 1.7 | 0.9 | 0.00 | 0.00 | 0.00 | 44 | 1018.5 |
| 20260506151511 | 48 | 41 | 3.5 | 0.9 | 0.00 | 0.00 | 0.00 | 43 | 1018.5 |
| 20260506151010 | 49 | 314 | 4.3 | 0.9 | 0.00 | 0.00 | 0.00 | 45 | 1018.5 |
| 20260506150510 | 48 | 323 | 0.0 | 0.9 | 0.00 | 0.00 | 0.00 | 45 | 1018.4 |
| 20260506150011 | 48 | 309 | 1.7 | 0.9 | 0.00 | 0.00 | 0.00 | 46 | 1018.3 |
| 20260506145510 | 47 | 337 | 1.7 | 0.9 | 0.00 | 0.00 | 0.00 | 47 | 1018.4 |
| 20260506145010 | 47 | 313 | 2.6 | 0.9 | 0.00 | 0.00 | 0.00 | 47 | 1018.4 |
| 20260506144510 | 46 | 248 | 0.9 | 0.9 | 0.00 | 0.00 | 0.00 | 48 | 1018.4 |
| 20260506144011 | 46 | 300 | 1.7 | 0.9 | 0.00 | 0.00 | 0.00 | 48 | 1018.4 |
| 20260506143510 | 46 | 298 | 0.0 | 0.9 | 0.00 | 0.00 | 0.00 | 49 | 1018.5 |
| 20260506142510 | 46 | 272 | 4.3 | 0.9 | 0.00 | 0.00 | 0.00 | 49 | 1018.6 |
| 20260506141510 | 46 | 229 | 0.0 | 0.0 | 0.00 | 0.00 | 0.00 | 47 | 1018.5 |
| 20260506141010 | 45 | 271 | 1.7 | 0.9 | 0.00 | 0.00 | 0.00 | 49 | 1018.4 |
| 20260506140510 | 44 | 240 | 0.0 | 0.9 | 0.00 | 0.00 | 0.00 | 48 | 1018.5 |
| 20260506140010 | 45 | 56 | 0.0 | 0.0 | 0.00 | 0.00 | 0.00 | 51 | 1018.5 |
| 20260506135510 | 45 | 352 | 0.0 | 0.0 | 0.00 | 0.00 | 0.00 | 51 | 1018.5 |
| 20260506135010 | 44 | 280 | 0.0 | 0.0 | 0.00 | 0.00 | 0.00 | 53 | 1018.5 |
| 20260506134510 | 44 | 68 | 0.0 | 0.0 | 0.00 | 0.00 | 0.00 | 55 | 1018.6 |
| 20260506134011 | 43 | 290 | 0.0 | 0.0 | 0.00 | 0.00 | 0.00 | 56 | 1018.5 |
| 20260506133510 | 42 | 1 | 0.0 | 0.0 | 0.00 | 0.00 | 0.00 | 57 | 1018.6 |
| 20260506132510 | 41 | 40 | 0.9 | 0.0 | 0.00 | 0.00 | 0.00 | 61 | 1018.3 |
| 20260506132010 | 39 | 284 | 0.9 | 0.0 | 0.00 | 0.00 | 0.00 | 65 | 1018.4 |
| 20260506131510 | 38 | 345 | 0.0 | 0.0 | 0.00 | 0.00 | 0.00 | 66 | 1018.4 |
| 20260506130510 | 37 | 276 | 0.0 | 0.0 | 0.00 | 0.00 | 0.00 | 66 | 1018.5 |
| 20260506130010 | 37 | 327 | 0.0 | 0.0 | 0.00 | 0.00 | 0.00 | 67 | 1018.4 |
| 20260506125510 | 36 | 18 | 0.0 | 0.0 | 0.00 | 0.00 | 0.00 | 68 | 1018.4 |
| 20260506125010 | 36 | 339 | 0.0 | 0.0 | 0.00 | 0.00 | 0.00 | 69 | 1018.4 |
| 20260506124011 | 35 | 309 | 0.0 | 0.0 | 0.00 | 0.00 | 0.00 | 69 | 1018.1 |
| 20260506123511 | 34 | 281 | 0.0 | 0.0 | 0.00 | 0.00 | 0.00 | 70 | 1018.0 |
| 20260506123010 | 0 | 0.0 | 22.6 | 0.00 | 0.00 | 0.00 | 1018.0 | ||
| 20260506122510 | 0 | 0.0 | 22.6 | 0.00 | 0.00 | 0.00 | 1018.0 | ||
| 20260506122010 | 0 | 0.0 | 22.6 | 0.00 | 0.00 | 0.00 | 1017.9 | ||
| 20260506121510 | 0 | 0.0 | 22.6 | 0.00 | 0.00 | 0.00 | 1017.9 | ||
| 20260506121010 | 0 | 0.0 | 22.6 | 0.00 | 0.00 | 0.00 | 1017.8 | ||
| 20260506120012 | 0 | 0.0 | 22.6 | 0.00 | 0.00 | 0.00 | 1017.7 | ||
| 20260506115510 | 0 | 0.0 | 22.6 | 0.00 | 0.00 | 0.00 | 1017.5 | ||
| 20260506115011 | 0 | 0.0 | 22.6 | 0.00 | 0.00 | 0.00 | 1017.5 | ||
| 20260506114510 | 0 | 0.0 | 22.6 | 0.00 | 0.00 | 0.00 | 1017.4 | ||
| 20260506114010 | 0 | 0.0 | 22.6 | 0.00 | 0.00 | 0.00 | 1017.4 | ||
| 20260506113511 | 0 | 0.0 | 22.6 | 0.00 | 0.00 | 0.00 | 1017.3 | ||
| 20260506112510 | 0 | 0.0 | 22.6 | 0.00 | 0.00 | 0.00 | 1017.3 | ||
| 20260506112010 | 0 | 0.0 | 22.6 | 0.00 | 0.00 | 0.00 | 1017.2 | ||
| 20260506111011 | 0 | 0.0 | 22.6 | 0.00 | 0.00 | 0.00 | 1017.0 | ||
| 20260506110510 | 0 | 0.0 | 22.6 | 0.00 | 0.00 | 0.00 | 1017.0 | ||
| 20260506110011 | 0 | 0.0 | 22.6 | 0.00 | 0.00 | 0.00 | 1017.0 | ||
| 20260506105511 | 0 | 0.0 | 22.6 | 0.00 | 0.00 | 0.00 | 1016.9 | ||
| 20260506105011 | 0 | 0.0 | 22.6 | 0.00 | 0.00 | 0.00 | 1016.9 | ||
| 20260506104510 | 0 | 0.0 | 22.6 | 0.00 | 0.00 | 0.00 | 1016.9 | ||
| 20260506104010 | 0 | 0.0 | 22.6 | 0.00 | 0.00 | 0.00 | 1016.9 | ||
| 20260506103511 | 29 | 272 | 0.0 | 0.0 | 0.00 | 0.00 | 0.00 | 72 | 1016.9 |
| 20260506103010 | 29 | 272 | 0.0 | 0.0 | 0.00 | 0.00 | 0.00 | 72 | 1016.9 |
| 20260506102510 | 30 | 273 | 0.0 | 0.0 | 0.00 | 0.00 | 0.00 | 72 | 1016.9 |
| 20260506102010 | 30 | 287 | 0.0 | 0.0 | 0.00 | 0.00 | 0.00 | 72 | 1016.9 |
| 20260506101511 | 30 | 287 | 0.0 | 0.0 | 0.00 | 0.00 | 0.00 | 72 | 1016.9 |
| 20260506101010 | 31 | 287 | 0.0 | 0.0 | 0.00 | 0.00 | 0.00 | 72 | 1016.9 |
| 20260506095511 | 32 | 288 | 1.7 | 0.0 | 0.00 | 0.00 | 0.00 | 70 | 1017.0 |
| 20260506095011 | 32 | 314 | 0.0 | 0.0 | 0.00 | 0.00 | 0.00 | 69 | 1016.8 |
| 20260506094510 | 32 | 314 | 0.0 | 0.0 | 0.00 | 0.00 | 0.00 | 69 | 1016.7 |
| 20260506093511 | 33 | 316 | 0.0 | 0.0 | 0.00 | 0.00 | 0.00 | 69 | 1016.4 |
| 20260506092011 | 32 | 63 | 0.0 | 0.0 | 0.00 | 0.00 | 0.00 | 69 | 1016.3 |
| 20260506091511 | 32 | 63 | 0.0 | 0.0 | 0.00 | 0.00 | 0.00 | 69 | 1016.2 |
| 20260506091010 | 32 | 63 | 0.0 | 0.0 | 0.00 | 0.00 | 0.00 | 68 | 1016.3 |
| 20260506090011 | 33 | 62 | 0.0 | 0.0 | 0.00 | 0.00 | 0.00 | 68 | 1016.2 |
| 20260506085511 | 33 | 61 | 0.0 | 0.0 | 0.00 | 0.00 | 0.00 | 67 | 1016.3 |
| 20260506085012 | 33 | 260 | 0.0 | 0.0 | 0.00 | 0.00 | 0.00 | 67 | 1016.3 |
| 20260506084511 | 33 | 266 | 0.0 | 0.0 | 0.00 | 0.00 | 0.00 | 67 | 1016.5 |
| 20260506084011 | 33 | 281 | 0.0 | 0.0 | 0.00 | 0.00 | 0.00 | 67 | 1016.4 |
| 20260506083511 | 34 | 281 | 0.0 | 0.0 | 0.00 | 0.00 | 0.00 | 66 | 1016.4 |
| 20260506083011 | 34 | 281 | 0.0 | 0.0 | 0.00 | 0.00 | 0.00 | 65 | 1016.4 |
| 20260506082511 | 35 | 262 | 0.0 | 0.0 | 0.00 | 0.00 | 0.00 | 65 | 1016.3 |
| 20260506082011 | 35 | 262 | 0.0 | 0.0 | 0.00 | 0.00 | 0.00 | 64 | 1016.1 |
| 20260506081511 | 36 | 231 | 0.0 | 0.0 | 0.00 | 0.00 | 0.00 | 64 | 1016.0 |
| 20260506081011 | 36 | 231 | 0.0 | 0.0 | 0.00 | 0.00 | 0.00 | 63 | 1015.9 |
| 20260506080510 | 36 | 348 | 0.0 | 0.0 | 0.00 | 0.00 | 0.00 | 64 | 1016.0 |
| 20260506073511 | 37 | 81 | 0.0 | 0.0 | 0.00 | 0.00 | 0.00 | 62 | 1015.8 |
| 20260506073011 | 37 | 81 | 0.0 | 0.0 | 0.00 | 0.00 | 0.00 | 62 | 1015.8 |